Regional Weather Roundup
Issued by NWS

Home | Current Version | Previous Version | Text Only | Print | Product List | Glossary Off
Versions: 1 2 3 4 5 6 7 8 9 10 11 12 13 14 15 16 17 18 19 20 21 22 23 24 25 26 27 28 29 30 31 32 33 34 35 36 37 38 39 40 41 42 43 44 45 46 47 48 49 50

000
ASUS43 KLOT 232006
RWRIL

ILLINOIS REGIONAL WEATHER ROUNDUP
NATIONAL WEATHER SERVICE CHICAGO/ROMEOVILLE IL
300 PM CDT WED APR 23 2014

NOTE: "FAIR" INDICATES FEW OR NO CLOUDS BELOW 12,000 FEET WITH NO
SIGNIFICANT WEATHER AND/OR OBSTRUCTIONS TO VISIBILITY.

* THESE STATIONS ARE NOT UNDER NWS QUALITY CONTROL. THEY ALSO MAY NOT
  REPORT WEATHER SUCH AS PRECIPITATION OR FOG.

ILZ001-002-007-009-015-016-024-232100-
NORTHWEST ILLINOIS

CITY           SKY/WX    TMP DP  RH WIND       PRES   REMARKS
MOLINE         CLOUDY    56  25  30 E12G17    30.08F
STERLING*      PTSUNNY   55  32  41 SE7       30.10F
SAVANNA*       CLOUDY    55  28  35 SE8       30.11S
$$

ILZ003-004-008-010-011-017-018-232100-
NORTH CENTRAL ILLINOIS

CITY           SKY/WX    TMP DP  RH WIND       PRES   REMARKS
ROCKFORD       CLOUDY    56  27  32 VRB7      30.13F
FREEPORT*      CLOUDY    52  21  29 E6        30.12F
ROCHELLE*      PTSUNNY   56  25  29 E10       30.11S
DE KALB*       PTSUNNY   54  24  32 E7        30.11F
PERU*          PTSUNNY   57  30  36 CALM      30.10S
$$

ILZ005-006-012>014-019>023-232100-
NORTHEAST ILLINOIS

CITY           SKY/WX    TMP DP  RH WIND       PRES   REMARKS
CHICAGO-OHARE  PTSUNNY   51  25  36 NE9       30.14F
CHICAGO-MIDWAY PTSUNNY   49  28  44 NE10      30.14F
AURORA         PTSUNNY   56  26  31 NE12      30.12F
LANSING*       SUNNY     46  30  52 N12       30.14F
JOLIET*        MOSUNNY   55  30  38 NE9       30.12F
WAUKEGAN       MOSUNNY   44  23  43 NE8       30.16F
DUPAGE AIRPORT PTSUNNY   53  25  33 NE10      30.12F
KANKAKEE*      SUNNY     56  32  41 E8        30.11F
WHEELING       SUNNY     47  25  42 E10       30.16F
MORRIS*        MOSUNNY   57  23  26 E8        30.10F
ROMEOVILLE*    MOSUNNY   53  26  35 NE7       30.12F
NORTHERLY ISL    N/A     42  34  73 N10         N/A
$$

LMZ740>746-232100-
SOUTHERN LAKE MICHIGAN

STATION/POSITION SKY/WX   TEMP    WIND        PRES    VSBY  WAVE
                          AIR SEA DIR/SP/G                  HT/PER
                          (F)     (DEG/KT/KT) (MB)    (MI)  (FT/S)
WAUKEGAN HARBOR            38      40/  9/ 11 1023.0S
HARRISON CRIB              37      10/ 12/ 14   N/A
BURNHAM HARBOR             42      20/ 11/ 13   N/A
CALUMET HARBOR             40     360/ 11/ 14 1022.1R
MICHIGAN CITY              38     360/ 11/ 12   N/A
$$

ILZ025>027-034>036-040-047-049-050-058-095>099-232100-
WEST-CENTRAL ILLINOIS

CITY           SKY/WX    TMP DP  RH WIND       PRES   REMARKS
QUINCY         CLOUDY    59  33  37 SE13      30.03F
GALESBURG*     CLOUDY    59  30  33 SE8       30.06F
MACOMB*        CLOUDY    59  28  30 SE12      30.08F
JACKSONVILLE*  PTSUNNY   62  31  31 SE12      30.07F
PITTSFIELD*    MOSUNNY   64  31  29 SE15      30.05F
$$

ILZ028>032-037-038-041>044-048-051>054-059>061-232100-
CENTRAL ILLINOIS

CITY           SKY/WX    TMP DP  RH WIND       PRES   REMARKS
PONTIAC        SUNNY     61  28  29 E8        30.09F
BLOOMINGTON    MOSUNNY   59  27  29 E10       30.09F
DECATUR        SUNNY     62  27  26 VRB7      30.07F
PEORIA         MOSUNNY   63  30  28 S10       30.08F
LACON*         MOSUNNY   58  31  35 E8        30.08F
LINCOLN*       SUNNY     64  27  25 NE3       30.07S
SPRINGFIELD    MOSUNNY   63  29  27 VRB6      30.07F
TAYLORVILLE    SUNNY     61  28  29 SE7       30.07F
$$

ILZ033-039-045-046-055>057-062-063-232100-
EAST-CENTRAL ILLINOIS

CITY           SKY/WX    TMP DP  RH WIND       PRES   REMARKS
CHAMPAIGN      SUNNY     61  27  27 NE5       30.08F
RANTOUL*       SUNNY     61  26  25 CALM      30.09F
MATTOON        SUNNY     60  28  29 E6        30.08F
PARIS*         SUNNY     60  29  31 CALM      30.09F
$$

ILZ079-100>102-232100-
SOUTHWEST ILLINOIS

CITY           SKY/WX    TMP DP  RH WIND       PRES   REMARKS
ALTON          MOSUNNY   63  30  29 E12       30.06F
BELLEVILLE     SUNNY     65  37  36 VRB7      30.04F
CAHOKIA*       SUNNY     66  38  35 SE7       30.04F
SPARTA*        SUNNY     63  41  45 E10       30.06F
$$

ILZ064>066-069>071-074>076-080>082-084>086-088>090-092>094-232100-
SOUTH-CENTRAL ILLINOIS

CITY           SKY/WX    TMP DP  RH WIND       PRES   REMARKS
CARBONDALE     SUNNY     65  37  35 E7        30.05F
CAIRO*         SUNNY     71  36  27 E8        30.04F
MT. VERNON     SUNNY    N/A N/A N/A E7        30.07F
CENTRALIA*     SUNNY     63  30  29 NE5       30.06F
SALEM*         SUNNY     64  33  32 SE5       30.07F
METROPOLIS*    SUNNY     67  28  22 E6        30.03F
$$

ILZ067-068-072-073-078-083-087-091-232100-
SOUTHEAST ILLINOIS

CITY           SKY/WX    TMP DP  RH WIND       PRES   REMARKS
FLORA*         SUNNY     60  29  30 E9        30.08F
FAIRFIELD*     SUNNY     63  34  34 CALM      30.07F
HARRISBURG*    SUNNY     63  33  32 E7        30.07F
ROBINSON*      SUNNY     63  35  35 NE6       30.09F
CARMI*         SUNNY     64  33  31 N7        30.07F
$$

ABBREVIATIONS USED IN REMARKS
   TC - TEMPERATURE IN CELSIUS
  WCI - WIND CHILL INDEX
   HX - HEAT INDEX
  VSB - VISIBILITY
$$




USA.gov is the U.S. government's official web portal to all federal, state and local government web resources and services.